Weather History for VTSP - March, 2013

Change the Weather History Date:

Tuesday, March 19, 2013

  Actual Average Record
Temperature  
Mean Temperature 86 °F -  
Max Temperature 94 °F 91 °F 102 °F (1998)
Min Temperature 77 °F 77 °F 72 °F (2014)
Cooling Degree Days 20    
Growing Degree Days 36 (Base 50)    
Moisture  
Dew Point 75 °F    
Average Humidity 71    
Maximum Humidity 94    
Minimum Humidity 49    
Precipitation  
Precipitation 0.00 in 0.16 in - ()
Sea Level Pressure  
Sea Level Pressure 29.80 in    
Wind  
Wind Speed 5 mph ()    
Max Wind Speed 16 mph    
Max Gust Speed 23 mph    
Visibility 5.5 miles    
Events      
Averages and records for this station are not official NWS values.
T = Trace of Precipitation, MM = Missing Value Source: Averaged Metar Reports

Daily Weather History Graph

Daily Weather History Graph

Search for Another Location

Airport or City:

Trip Planner

Search our weather history database for the weather conditions in past years. The results will help you decide how hot, cold, wet, or windy it might be!

Date:

Astronomy

Mar. 19, 2013 Rise Set
Actual Time 6:31 AM ICT 6:37 PM ICT
Civil Twilight 6:10 AM ICT 6:58 PM ICT
Nautical Twilight 5:46 AM ICT 7:22 PM ICT
Astronomical Twilight 5:22 AM ICT 7:46 PM ICT
Moon 11:57 AM ICT (3/19) No Moon Set
Length of Visible Light 12h 47m
Length of Day
12h 06m
Waxing Crescent, 45% of the Moon is Illuminated
Mar 19
Waxing Crescent
Mar 20
First Quarter
Mar 27
Full
Apr 3
Last Quarter
Apr 10
New

Hourly Weather History & Observations

Time (ICT) Temp. Heat Index Dew Point Humidity Pressure Visibility Wind Dir Wind Speed Gust Speed Precip Events Conditions
12:30 AM 82.4 °F 89.5 °F 75.2 °F 79% 29.80 in - North - - N/A   Scattered Clouds
1:00 AM 81 °F - 78 °F 88% 29.77 in 6 mi Calm Calm - -   Scattered Clouds
1:00 AM 82.4 °F 89.5 °F 75.2 °F 79% 29.80 in 5.6 mi Calm Calm - N/A   Scattered Clouds
1:30 AM 80.6 °F 86.2 °F 75.2 °F 84% 29.77 in 5.6 mi Calm Calm - N/A   Scattered Clouds
2:00 AM 80.6 °F 86.2 °F 75.2 °F 84% 29.77 in 5.6 mi ENE 3.5 mph - N/A   Scattered Clouds
2:30 AM 80.6 °F 86.2 °F 75.2 °F 84% 29.77 in 5.6 mi East 3.5 mph - N/A   Scattered Clouds
3:30 AM 78.8 °F - 75.2 °F 89% 29.77 in 5.6 mi Calm Calm - N/A   Scattered Clouds
4:00 AM 77.0 °F - 75.2 °F 94% 29.77 in 5.6 mi Calm Calm - N/A   Scattered Clouds
4:30 AM 77.0 °F - 75.2 °F 94% 29.77 in 5.6 mi SE 3.5 mph - N/A   Scattered Clouds
5:30 AM 77.0 °F - 73.4 °F 89% 29.80 in 5.6 mi SSE 3.5 mph - N/A   Scattered Clouds
6:00 AM 77.0 °F - 73.4 °F 89% 29.80 in 5.6 mi Calm Calm - N/A   Scattered Clouds
6:30 AM 77.0 °F - 73.4 °F 89% 29.80 in 4.3 mi Calm Calm - N/A   Scattered Clouds
7:00 AM 79 °F - 77 °F 91% 29.77 in 5 mi Calm Calm - -   Mist
7:00 AM 77.0 °F - 75.2 °F 94% 29.80 in 4.3 mi SE 2.3 mph - N/A   Scattered Clouds
7:30 AM 78.8 °F - 77.0 °F 94% 29.83 in 5.0 mi Calm Calm - N/A   Scattered Clouds
8:00 AM 82.4 °F 89.5 °F 75.2 °F 79% 29.83 in 5.0 mi ENE 4.6 mph - N/A   Scattered Clouds
8:30 AM 86.0 °F 95.1 °F 75.2 °F 70% 29.86 in 5.0 mi East 8.1 mph - N/A   Scattered Clouds
9:00 AM 87.8 °F 95.6 °F 73.4 °F 62% 29.83 in 5.0 mi East 9.2 mph - N/A   Scattered Clouds
9:30 AM 89.6 °F 98.2 °F 73.4 °F 59% 29.83 in 5.0 mi East 5.8 mph - N/A   Scattered Clouds
10:00 AM 89.6 °F 98.2 °F 73.4 °F 59% 29.86 in 5.0 mi Variable 4.6 mph - N/A   Scattered Clouds
10:30 AM 93.2 °F 102.4 °F 73.4 °F 52% 29.83 in 5.0 mi NNE 5.8 mph - N/A   Scattered Clouds
11:00 AM 91.4 °F 98.4 °F 71.6 °F 52% 29.83 in 5.6 mi ENE 6.9 mph - N/A   Scattered Clouds
11:30 AM 91.4 °F 100.1 °F 73.4 °F 55% 29.83 in 5.6 mi Calm Calm - N/A   Scattered Clouds
12:00 PM 91.4 °F 100.1 °F 73.4 °F 55% 29.83 in 5.6 mi WSW 5.8 mph - N/A   Scattered Clouds
12:30 PM 93.2 °F 100.5 °F 71.6 °F 49% 29.83 in 5.6 mi ENE 8.1 mph - N/A   Scattered Clouds
1:00 PM 90 °F - 75 °F 54% 29.79 in 6 mi NW 8.1 mph - -   Scattered Clouds
1:00 PM 93.2 °F 102.4 °F 73.4 °F 52% 29.83 in 5.6 mi WNW 5.8 mph - N/A   Scattered Clouds
1:30 PM 93.2 °F 100.5 °F 71.6 °F 49% 29.80 in 5.6 mi West 11.5 mph 23.0 mph N/A   Scattered Clouds
2:00 PM 91.4 °F 102.5 °F 75.2 °F 59% 29.80 in 5.6 mi West 13.8 mph - N/A   Scattered Clouds
2:30 PM 91.4 °F 100.1 °F 73.4 °F 55% 29.77 in 5.6 mi West 11.5 mph - N/A   Scattered Clouds
3:00 PM 91.4 °F 102.5 °F 75.2 °F 59% 29.77 in 5.6 mi West 16.1 mph - N/A   Scattered Clouds
3:30 PM 89.6 °F 99.8 °F 75.2 °F 62% 29.74 in 5.6 mi West 11.5 mph - N/A   Scattered Clouds
4:00 PM 89.6 °F 99.8 °F 75.2 °F 62% 29.74 in 5.6 mi West 15.0 mph - N/A   Scattered Clouds
4:30 PM 89.6 °F 99.8 °F 75.2 °F 62% 29.74 in 5.6 mi West 13.8 mph - N/A   Scattered Clouds
5:00 PM 89.6 °F 99.8 °F 75.2 °F 62% 29.74 in 5.6 mi West 13.8 mph - N/A   Scattered Clouds
5:30 PM 87.8 °F 97.6 °F 75.2 °F 66% 29.77 in 5.6 mi West 11.5 mph - N/A   Scattered Clouds
6:00 PM 87.8 °F 97.6 °F 75.2 °F 66% 29.77 in 5.6 mi West 11.5 mph - N/A   Scattered Clouds
6:30 PM 86.0 °F 96.9 °F 77.0 °F 74% 29.77 in 5.6 mi WNW 10.4 mph - N/A   Mostly Cloudy
7:00 PM 88 °F - 78 °F 65% 29.74 in 6 mi West 9.2 mph - -   Scattered Clouds
7:00 PM 86.0 °F 95.1 °F 75.2 °F 70% 29.80 in 5.6 mi West 10.4 mph - N/A   Mostly Cloudy
7:30 PM 86.0 °F 95.1 °F 75.2 °F 70% 29.80 in 5.6 mi West 11.5 mph 23.0 mph N/A   Mostly Cloudy
8:00 PM 86.0 °F 95.1 °F 75.2 °F 70% 29.80 in 5.6 mi WNW 12.7 mph - N/A   Scattered Clouds
8:30 PM 86.0 °F 95.1 °F 75.2 °F 70% 29.83 in 5.6 mi WNW 11.5 mph - N/A   Mostly Cloudy
9:00 PM 86.0 °F 95.1 °F 75.2 °F 70% 29.83 in 5.6 mi WNW 11.5 mph - N/A   Mostly Cloudy
9:30 PM 86.0 °F 95.1 °F 75.2 °F 70% 29.83 in 5.6 mi WNW 11.5 mph - N/A   Mostly Cloudy
10:00 PM 84.2 °F 92.3 °F 75.2 °F 74% 29.86 in 5.6 mi WNW 13.8 mph - N/A   Mostly Cloudy
10:30 PM 84.2 °F 92.3 °F 75.2 °F 74% 29.86 in 5.6 mi WNW 8.1 mph - N/A   Mostly Cloudy
11:00 PM 84.2 °F 92.3 °F 75.2 °F 74% 29.86 in 5.6 mi WNW 6.9 mph - N/A   Mostly Cloudy
11:30 PM 84.2 °F 92.3 °F 75.2 °F 74% 29.86 in 5.6 mi WNW 5.8 mph - N/A   Scattered Clouds